Flag for Germany Weather past 2 weeks in Marburg, Hesse, Germany

Now
78 °F

Overcast.


Feels Like: 79 °F
Forecast: 55 / 74 °F
Wind: 6 mph from Northeast

Location: Giessen

Current Time: Jul 24, 2014 at 3:29:35 PM

Latest Report: Jul 24, 2014 at 3:00 PM


Visibility: 0 mi

Pressure: 29.92 "Hg

Humidity: 40%

Dew point: 51 °F

Location of MarburgLocation

Historic Weather in Marburg — Graph

°F

Marburg temperature yesterday

Maximum temperature yesterday: 81 °F (at 4:00 PM)
Minimum temperature yesterday: 63 °F (at 6:00 AM)
Average temperature yesterday: 73 °F

Past Weeks' High & Low Weather Summary

 TemperatureHumidityPressure
High89 °F (Jul 19, 6:00 PM)99% (Jul 11, 5:00 AM)30.20 "Hg (Jul 11, 5:00 AM)
Low54 °F (Jul 11, 6:00 AM)31% (Jul 18, 7:00 PM)29.67 "Hg (Jul 9, 5:00 PM)
Average68 °F75%29.94 "Hg
* Reported Jul 9 3:00 PM — Jul 24 2:00 PM, Marburg, Weather by CustomWeather, © 2014

Note: Actual official high and low records may vary slightly from our data, if they occured in-between our weather recording intervals... More about our weather records

Advertising

Marburg weather history for previous 24 hours

 ConditionsComfort  
Time TempWeatherWind HumidityBarometerVisibility
2:00 PM
Jul 24
78 °FPartly sunny.6 mph47%29.93 "Hg12 mi
1:00 PM76 °FOvercast.8 mph47%29.93 "Hg9 mi
12:00 PM74 °FSunny.6 mph56%29.95 "Hg10 mi
11:00 AM72 °FSunny.6 mph58%29.95 "Hg17 mi
10:00 AM67 °FPassing clouds.6 mph65%29.96 "Hg25 mi
9:00 AM67 °FPassing clouds.7 mph68%29.97 "Hg18 mi
8:00 AM65 °FSunny.6 mph69%29.96 "Hg19 mi
7:00 AM61 °FPartly sunny.3 mph83%29.97 "Hg19 mi
6:00 AM58 °FSunny.1 mph89%29.96 "HgN/A
5:00 AM58 °FClear.1 mph89%29.96 "Hg12 mi
4:00 AM62 °FClear.2 mph79%29.97 "Hg19 mi
3:00 AM62 °FClear.2 mph82%29.98 "Hg19 mi
2:00 AM64 °FClear.3 mph78%29.99 "HgN/A
1:00 AM64 °FPassing clouds.2 mph82%29.99 "Hg19 mi
12:00 AM67 °FClear.2 mph70%29.99 "Hg22 mi
11:00 PM
Jul 23
68 °FClear.3 mph70%29.99 "Hg25 mi
10:00 PM71 °FOvercast.3 mph63%29.98 "Hg25 mi
9:00 PM74 °FPassing clouds.5 mph55%29.97 "Hg28 mi
8:00 PM77 °FOvercast.6 mph54%29.96 "Hg25 mi
7:00 PM79 °FOvercast.6 mph47%29.96 "Hg37 mi
6:00 PM79 °FOvercast.9 mph47%29.96 "Hg31 mi
5:00 PM81 °FOvercast.5 mph45%29.97 "Hg28 mi
4:00 PM81 °FOvercast.6 mph42%29.98 "Hg28 mi
3:00 PM81 °FOvercast.3 mph48%30.00 "Hg19 mi
Weather by CustomWeather, © 2014

See weather overviewHow to use our weather pages